When you browse on this site, cookies collect data to enhance your experience and personalize the content and advertising you see.
Visit our Privacy Policy to learn more. By continuing to use the site, you agree to this use of cookies and data.
  • în România
  • Lista ţărilor
  • Pe 7 zile
  • Temperatura apei
  • Hartă satelitară
  • Meteo pe hartă
  • Widget-uri
  • user-avatar
    Intrare

    Meteo pe oră la Talsa

    Astăzi, 16 Februarie, Sâmbătă

    Timp Temperatura Precipitaţii Vânt Presiune Umiditate
    00:00 -8°C° 0 mm 4 m/s 743 mmHg 77%
    01:00 -8°C° 0 mm 4 m/s 743 mmHg 77%
    02:00 -7°C° 0 mm 4 m/s 743 mmHg 76%
    03:00 -7°C° 0 mm 4 m/s 743 mmHg 76%
    04:00 -7°C° 0 mm 4 m/s 743 mmHg 76%
    05:00 -8°C° 0 mm 4 m/s 743 mmHg 76%
    06:00 -8°C° 0 mm 4 m/s 743 mmHg 76%
    07:00 -7°C° 0 mm 4 m/s 743 mmHg 74%
    08:00 -7°C° 0 mm 4 m/s 742 mmHg 73%
    09:00 -5°C° 0 mm 4 m/s 742 mmHg 72%
    10:00 -4°C° 0 mm 3 m/s 741 mmHg 69%
    11:00 -1°C° 0 mm 3 m/s 740 mmHg 67%
    12:00 +2°C° 0 mm 2 m/s 740 mmHg 65%
    13:00 +2°C° 0 mm 3 m/s 739 mmHg 65%
    14:00 +3°C° 0 mm 3 m/s 738 mmHg 64%
    15:00 +4°C° 0 mm 3 m/s 737 mmHg 64%
    16:00 +4°C° 0 mm 3 m/s 736 mmHg 68%
    17:00 +4°C° 0 mm 2 m/s 736 mmHg 72%
    18:00 +4°C° 0 mm 2 m/s 735 mmHg 76%
    19:00 +3°C° 0 mm 2 m/s 735 mmHg 80%
    20:00 +3°C° 0 mm 2 m/s 735 mmHg 83%
    21:00 +2°C° 0 mm 2 m/s 735 mmHg 87%
    22:00 +3°C° 0 mm 2 m/s 734 mmHg 89%
    23:00 +3°C° 0 mm 2 m/s 734 mmHg 90%

    Mâine, 17 Februarie, Duminică

    Timp Temperatura Precipitaţii Vânt Presiune Umiditate
    00:00 +4°C° 0 mm 2 m/s 734 mmHg 92%
    01:00 +3°C° 0 mm 2 m/s 734 mmHg 93%
    02:00 +3°C° 0 mm 2 m/s 734 mmHg 94%
    03:00 +4°C° 0 mm 1 m/s 734 mmHg 95%
    04:00 +2°C° 0.1 mm 3 m/s 734 mmHg 94%
    05:00 +1°C° 0.1 mm 4 m/s 735 mmHg 92%
    06:00 +1°C° 0.1 mm 5 m/s 736 mmHg 91%
    07:00 0°C° 0 mm 5 m/s 737 mmHg 85%
    08:00 -1°C° 0 mm 6 m/s 738 mmHg 79%
    09:00 -1°C° 0 mm 6 m/s 740 mmHg 73%
    10:00 +2°C° 0 mm 6 m/s 741 mmHg 67%
    11:00 +3°C° 0 mm 5 m/s 741 mmHg 61%
    12:00 +5°C° 0 mm 5 m/s 742 mmHg 54%
    13:00 +6°C° 0 mm 5 m/s 742 mmHg 51%
    14:00 +7°C° 0 mm 5 m/s 742 mmHg 47%
    15:00 +7°C° 0 mm 5 m/s 742 mmHg 44%
    16:00 +6°C° 0 mm 5 m/s 742 mmHg 46%
    17:00 +5°C° 0 mm 4 m/s 743 mmHg 49%
    18:00 +4°C° 0 mm 3 m/s 744 mmHg 51%
    19:00 +3°C° 0 mm 4 m/s 745 mmHg 56%
    20:00 +1°C° 0 mm 4 m/s 746 mmHg 62%
    21:00 0°C° 0 mm 4 m/s 747 mmHg 67%
    22:00 -1°C° 0 mm 4 m/s 747 mmHg 69%
    23:00 -2°C° 0 mm 4 m/s 747 mmHg 71%

    Poimâine, 18 Februarie, Luni

    Timp Temperatura Precipitaţii Vânt Presiune Umiditate
    00:00 -2°C° 0 mm 3 m/s 748 mmHg 73%
    01:00 -3°C° 0 mm 4 m/s 748 mmHg 72%
    02:00 -3°C° 0 mm 4 m/s 748 mmHg 71%
    03:00 -4°C° 0 mm 4 m/s 748 mmHg 70%
    04:00 -4°C° 0 mm 4 m/s 748 mmHg 69%
    05:00 -4°C° 0 mm 4 m/s 749 mmHg 67%
    06:00 -4°C° 0 mm 4 m/s 749 mmHg 66%
    07:00 -5°C° 0 mm 5 m/s 750 mmHg 63%
    08:00 -5°C° 0 mm 6 m/s 751 mmHg 60%
    09:00 -4°C° 0 mm 6 m/s 751 mmHg 57%
    10:00 -3°C° 0 mm 6 m/s 751 mmHg 51%
    11:00 -1°C° 0 mm 5 m/s 751 mmHg 46%
    12:00 0°C° 0 mm 5 m/s 752 mmHg 40%
    13:00 +1°C° 0 mm 5 m/s 751 mmHg 41%
    14:00 +1°C° 0 mm 6 m/s 750 mmHg 41%
    15:00 +2°C° 0 mm 6 m/s 750 mmHg 41%
    16:00 +1°C° 0 mm 6 m/s 750 mmHg 45%
    17:00 0°C° 0 mm 5 m/s 750 mmHg 49%
    18:00 0°C° 0 mm 5 m/s 750 mmHg 52%
    19:00 -1°C° 0 mm 5 m/s 750 mmHg 56%
    20:00 -2°C° 0 mm 5 m/s 751 mmHg 61%
    21:00 -3°C° 0 mm 6 m/s 751 mmHg 65%
    22:00 -4°C° 0 mm 6 m/s 751 mmHg 68%
    23:00 -4°C° 0 mm 6 m/s 751 mmHg 71%

    19 Februarie, Marţi

    Timp Temperatura Precipitaţii Vânt Presiune Umiditate
    00:00 -4°C° 0 mm 6 m/s 751 mmHg 75%
    01:00 -4°C° 0 mm 6 m/s 750 mmHg 78%
    02:00 -4°C° 0 mm 6 m/s 750 mmHg 81%
    03:00 -4°C° 0 mm 6 m/s 749 mmHg 84%
    04:00 -4°C° 0 mm 5 m/s 749 mmHg 85%
    05:00 -4°C° 0 mm 5 m/s 749 mmHg 86%
    06:00 -4°C° 0 mm 5 m/s 749 mmHg 87%
    07:00 -4°C° 0.1 mm 5 m/s 749 mmHg 84%
    08:00 -3°C° 0.1 mm 6 m/s 748 mmHg 80%
    09:00 -3°C° 0.1 mm 6 m/s 748 mmHg 77%
    10:00 -3°C° 1.4 mm 6 m/s 748 mmHg 82%
    11:00 -4°C° 1.4 mm 7 m/s 748 mmHg 88%
    12:00 -4°C° 1.4 mm 7 m/s 747 mmHg 93%
    13:00 -4°C° 1 mm 7 m/s 746 mmHg 93%
    14:00 -3°C° 1 mm 6 m/s 745 mmHg 93%
    15:00 -3°C° 1 mm 6 m/s 744 mmHg 93%
    16:00 -3°C° 0.3 mm 6 m/s 744 mmHg 93%
    17:00 -2°C° 0.3 mm 5 m/s 744 mmHg 93%
    18:00 -2°C° 0.3 mm 5 m/s 744 mmHg 93%
    19:00 -1°C° 0.1 mm 4 m/s 744 mmHg 94%
    20:00 0°C° 0.1 mm 3 m/s 744 mmHg 94%
    21:00 0°C° 0.1 mm 3 m/s 744 mmHg 95%
    22:00 +1°C° 0 mm 2 m/s 743 mmHg 96%
    23:00 +1°C° 0 mm 2 m/s 743 mmHg 96%

    20 Februarie, Miercuri

    Timp Temperatura Precipitaţii Vânt Presiune Umiditate
    00:00 +1°C° 0 mm 2 m/s 743 mmHg 97%
    01:00 -1°C° 0 mm 2 m/s 742 mmHg 97%
    02:00 -1°C° 0 mm 2 m/s 742 mmHg 97%
    03:00 -1°C° 0 mm 2 m/s 742 mmHg 97%
    04:00 -1°C° 0 mm 2 m/s 742 mmHg 96%
    05:00 -1°C° 0 mm 3 m/s 742 mmHg 95%
    06:00 -1°C° 0 mm 3 m/s 743 mmHg 94%
    07:00 -1°C° 0 mm 3 m/s 743 mmHg 94%
    08:00 0°C° 0 mm 3 m/s 743 mmHg 93%
    09:00 0°C° 0 mm 3 m/s 744 mmHg 93%
    10:00 0°C° 0 mm 3 m/s 744 mmHg 91%
    11:00 +1°C° 0 mm 3 m/s 744 mmHg 90%
    12:00 +2°C° 0 mm 3 m/s 744 mmHg 89%
    13:00 +2°C° 0 mm 3 m/s 743 mmHg 88%
    14:00 +2°C° 0 mm 3 m/s 743 mmHg 86%
    15:00 +1°C° 0 mm 3 m/s 743 mmHg 85%
    16:00 +2°C° 0 mm 2 m/s 743 mmHg 86%
    17:00 +2°C° 0 mm 2 m/s 743 mmHg 87%
    18:00 +1°C° 0 mm 2 m/s 743 mmHg 88%
    19:00 +1°C° 0 mm 2 m/s 744 mmHg 88%
    20:00 +1°C° 0 mm 2 m/s 744 mmHg 88%
    21:00 -1°C° 0 mm 2 m/s 745 mmHg 89%
    22:00 -1°C° 0 mm 2 m/s 745 mmHg 89%
    23:00 -1°C° 0 mm 2 m/s 745 mmHg 89%

    21 Februarie, Joi

    Timp Temperatura Precipitaţii Vânt Presiune Umiditate
    00:00 -1°C° 0 mm 2 m/s 746 mmHg 89%
    01:00 -1°C° 0 mm 2 m/s 746 mmHg 89%
    02:00 -2°C° 0 mm 2 m/s 746 mmHg 89%
    03:00 -2°C° 0 mm 2 m/s 746 mmHg 90%
    04:00 -2°C° 0 mm 2 m/s 746 mmHg 89%
    05:00 -2°C° 0 mm 3 m/s 746 mmHg 89%
    06:00 -2°C° 0 mm 3 m/s 746 mmHg 89%
    07:00 -2°C° 0 mm 4 m/s 746 mmHg 87%
    08:00 -2°C° 0 mm 4 m/s 746 mmHg 85%
    09:00 -1°C° 0 mm 5 m/s 746 mmHg 83%
    10:00 -1°C° 0 mm 5 m/s 746 mmHg 81%
    11:00 0°C° 0 mm 5 m/s 746 mmHg 79%
    12:00 +1°C° 0 mm 4 m/s 746 mmHg 77%
    13:00 +1°C° 0.2 mm 4 m/s 746 mmHg 78%
    14:00 +3°C° 0.2 mm 4 m/s 745 mmHg 79%
    15:00 +3°C° 0.2 mm 4 m/s 745 mmHg 80%
    16:00 +2°C° 0.7 mm 3 m/s 745 mmHg 83%
    17:00 +2°C° 0.7 mm 3 m/s 745 mmHg 86%
    18:00 +2°C° 0.7 mm 3 m/s 745 mmHg 89%
    19:00 +2°C° 0.9 mm 3 m/s 746 mmHg 91%
    20:00 +2°C° 0.9 mm 3 m/s 746 mmHg 92%
    21:00 +2°C° 0.9 mm 3 m/s 746 mmHg 94%
    22:00 +1°C° 0 mm 3 m/s 746 mmHg 94%
    23:00 +1°C° 0 mm 3 m/s 746 mmHg 95%
    Arată mai mult